CHINASAT 3B

Last updated on Mon Oct 20 2025 00:02:51 GMT+0000 (Coordinated Universal Time)

1 64062U 25106A 25292.30947388 -.00000047 00000+0 00000+0 0 9994 2 64062 0.0390 17.1648 0008061 207.1362 82.4680 1.00271446 1649
UTC large
Height (km)
Speed (km/s)
/
Latitude / Longitude
Inclination (degrees)
Orbital Period (minutes)
Azimuth
Elevation
Range (km)
Doppler Factor

Next 0 passes for location: London (51.5072 / 0.1276)

Sorry there are no passes over London.